Home > Weather > Zielona Góra > Past weeks

Flag for Poland Weather for the Past 2 Weeks in Zielona Góra, Poland

Now
29 °F

Fog.


Feels Like: 29 °F
Forecast: 33 / 42 °F
Wind: 2 mph from Southeast

Location: Zielona Gora

Current Time: Feb 13, 2016 at 8:42:31 AM

Latest Report: Feb 13, 2016 at 8:00 AM


Visibility: 2 mi

Pressure: 29.47 "Hg

Humidity: 93%

Dew point: 28 °F

Location of Zielona GóraLocation

Historic Weather in Zielona Góra — Graph

°F

Zielona Góra Temperature Yesterday

Maximum temperature yesterday: 42 °F (at 1:00 PM)
Minimum temperature yesterday: 31 °F (at 7:00 AM)
Average temperature yesterday: 36 °F

High & Low Weather Summary for the Past Weeks

 TemperatureHumidityPressure
High52 °F (Feb 2, 11:00 AM)100% (Feb 1, 4:00 PM)30.30 "Hg (Feb 1, 4:00 PM)
Low29 °F (Feb 13, 6:00 AM)50% (Feb 8, 4:00 PM)29.09 "Hg (Feb 9, 11:00 PM)
Average41 °F77%29.77 "Hg
* Reported Jan 29 7:00 AM — Feb 13 7:00 AM, Zielona Góra, Weather by CustomWeather, © 2016

Note: Actual official high and low records may vary slightly from our data, if they occured in-between our weather recording intervals... More about our weather records

Advertising

Zielona Góra Weather History for the Previous 24 Hours

 ConditionsComfort  
Time TempWeatherWind HumidityBarometerVisibility
7:00 AM
Sat, Feb 13
30 °FFog.2 mph92%29.47 "Hg4 mi
6:00 AM29 °FFog.3 mph95%29.50 "Hg2 mi
5:00 AM30 °FFog.2 mph93%29.50 "Hg2 mi
4:00 AM31 °FFog.2 mph91%29.50 "Hg4 mi
3:00 AM31 °FFog.2 mph90%29.50 "Hg5 mi
2:00 AM31 °FClear.2 mph88%29.54 "Hg6 mi
1:00 AM31 °FClear.2 mph84%29.55 "Hg6 mi
11:00 PM
Fri, Feb 12
34 °FClear.1 mph79%29.56 "Hg9 mi
10:00 PM34 °FPassing clouds.2 mph78%29.57 "Hg9 mi
9:00 PM35 °FPassing clouds.2 mph76%29.58 "Hg12 mi
8:00 PM35 °FFog.2 mph76%29.59 "Hg6 mi
7:00 PM36 °FClear.2 mph74%29.59 "Hg31 mi
6:00 PM37 °FPassing clouds.1 mph73%29.61 "Hg31 mi
5:00 PM38 °FPartly sunny.2 mph72%29.62 "Hg12 mi
4:00 PM40 °FScattered clouds.1 mph65%29.62 "Hg16 mi
3:00 PM42 °FPartly sunny.2 mph58%29.61 "Hg19 mi
2:00 PM41 °FPartly sunny.2 mph59%29.62 "Hg22 mi
1:00 PM42 °FPartly sunny.3 mph60%29.63 "Hg19 mi
12:00 PM42 °FPartly sunny.3 mph67%29.65 "Hg12 mi
11:00 AM39 °FScattered clouds.3 mph77%29.67 "Hg9 mi
10:00 AM36 °FFog.5 mph85%29.68 "Hg5 mi
9:00 AM32 °FFog.3 mph93%29.68 "Hg5 mi
8:00 AM31 °FPartly sunny.3 mph95%29.68 "Hg3 mi
Weather by CustomWeather, © 2016

See weather overviewHow to use our weather pages